SCP
0 0 0 0 0 0 0 0 0 0 0 0 0 0 0 0 0 0 0 0 0 0 0 0 0 0 0 0 0 0 0 0 0 0 0 0 0 0 0 0 0 0 0 0
0 0 0 0 0 0 0 0 0 0 0 0 0 0 0 0 0 0 0 0 0 0 0 0 0 0 0 0 0 0 0 0 0 0 0 0 0 0 0 0 0 0 0 0
0 0 0 0 0 0 0 0 0 0 0 0 0 0 0 0 0 0 0 0 0 0 0 0 0 0 0 0 0 0 0 0 0 0 0 0 0 0 0 0 0 0 0 0
0 0 0 0 0 0 0 0 0 0 0 0 0 0 0 0 0 0 0 0 0 0 0 0 0 0 0 0 0 0 0 0 0 0 0 0 0 0 0 0 0 0 0 0
0 0 0 0 0 0 0 0 0 0 0 0 0 0 0 0 0 0 0 0 0 0 0 0 0 0 0 0 0 0 0 0 0 0 0 0 0 0 0 0 0 0 0 0
0 0 0 0 0 0 0 0 0 0 0 0 0 0 0 0 0 0 0 0 0 0 0 0 0 0 0 0 0 0 0 0 0 0 0 0 0 0 0 0 0 0 0 0
0 0 0 0 0 0 0 0 0 0 0 0 0 0 0 0 0 0 0 0 0 0 0 0 0 0 0 0 0 0 0 0 0 0 0 0 0 0 0 0 0 0 0 0
0 0 0 0 0 0 0 0 0 0 0 0 0 0 0 0 0 0 0 0 0 0 0 0 0 0 0 0 0 0 0 0 0 0 0 0 0 0 0 0 0 0 0 0
0 0 0 0 0 0 0 0 0 0 0 0 0 0 0 0 0 0 0 0 0 0 0 0 0 0 0 0 0 0 0 0 0 0 0 0 0 0 0 0 0 0 0 0
0 0 0 0 0 0 0 0 0 0 0 0 0 0 0 0 0 0 0 0 0 0 0 0 0 0 0 0 0 0 0 0 0 0 0 0 0 0 0 0 0 0 0 0
0 0 0 0 0 0 0 0 0 0 0 0 0 0 0 0 0 0 0 0 0 0 0 0 0 0 0 0 0 0 0 0 0 0 0 0 0 0 0 0 0 0 0 0
0 0 0 0 0 0 0 0 0 0 0 0 0 0 0 0 0 0 0 0 0 0 0 0 0 0 0 0 0 0 0 0 0 0 0 0 0 0 0 0 0 0 0 0
0 0 0 0 0 0 0 0 0 0 0 0 0 0 0 0 0 0 0 0 0 0 0 0 0 0 0 0 0 0 0 0 0 0 0 0 0 0 0 0 0 0 0 0
0 0 0 0 0 0 0 0 0 0 0 0 0 0 0 0 0 0 0 0 0 0 0 0 0 0 0 0 0 0 0 0 0 0 0 0 0 0 0 0 0 0 0 0
0 0 0 0 0 0 0 0 0 0 0 0 0 0 0 0 0 0 0 0 0 0 0 0 0 0 0 0 0 0 0 0 0 0 0 0 0 0 0 0 0 0 0 0
0 0 0 0 0 0 0 0 0 0 0 0 0 0 0 0 0 0 0 0 0 0 0 0 0 0 0 0 0 0 0 0 0 0 0 0 0 0 0 0 0 0 0 0
0 0 0 0 0 0 0 0 0 0 0 0 0 0 0 0 0 0 0 0 0 0 0 0 0 0 0 0 0 0 0 0 0 0 0 0 0 0 0 0 0 0 0 0
0 0 0 0 0 0 0 0 0 0 0 0 0 0 0 0 -0 0 0 0 0 0 0 0 0 0 0 0 0 0 0 0 0 0 0 0 0 0 0 0 0 0 0 0
0 0 0 0 0 0 0 0 0 0 0 0 0 0 0 0 0 0 0 0 0 0 0 0 0 0 0 0 0 0 0 0 0 0 0 0 0 0 0 0 0 0 0 0
0 0 0 0 0 0 0 0 0 0 0 0 0 0 0 0 0 0 0 0 0 0 0 0 0 0 0 0 0 0 0 0 0 0 0 0 0 0 0 0 0 0 0 0
0 0 0 0 0 0 0 0 0 0 0 0 0 0 0 0 0 0 0 0 0 0 0 0 0 0 0 0 0 0 0 0 0 0 0 0 0 0 0 0 0 0 0 0
0 0 0 0 0 0 0 0 0 0 0 0 0 0 0 0 0 0 -0 0 0 0 0 0 0 0 0 0 0 0 0 0 0 0 0 0 0 0 0 0 0 0 0 0
0 0 0 0 0 0 0 0 0 0 0 0 0 0 0 0 0 0 0 0 0 0 0 0 0 0 0 0 0 0 0 0 0 0 0 0 0 0 0 0 0 0 0 0
0 0 0 0 0 0 0 0 0 0 0 0 0 0 0 0 0 0 0 0 0 0 0 0 0 0 0 0 0 0 0 0 0 0 0 0 0 0 0 0 0 0 0 0
0 0 0 0 0 0 0 0 0 0 0 0 0 0 0 0 0 0 0 0 0 0 0 0 0 0 0 0 0 0 0 0 0 0 0 0 0 0 0 0 0 0 0 0
0 0 0 0 0 0 0 0 0 0 0 0 0 0 0 0 0 0 0 0 0 0 0 0 0 0 0 0 0 0 0 0 0 0 0 0 0 0 0 0 0 0 0 0
Wind_Speed_500mb
14 8 13 18 17 8 13 12 12 0 5 8 13 13 18 29 22 30 34 29 34 33 36 40 37 54 50 53 54 51 48 47 47 55 59 61 63 65 63 58 55 51 47 44
7 9 15 16 12 7 6 11 7 4 1 4 6 18 19 22 28 43 45 40 41 36 36 40 40 43 58 59 56 54 52 49 50 51 52 59 59 62 61 67 64 58 54 49
13 13 20 17 14 15 7 12 10 10 3 5 5 15 14 18 45 52 56 50 47 45 44 46 45 46 48 57 61 58 55 56 54 52 49 52 53 58 58 65 69 66 58 55
12 14 23 13 10 11 9 7 13 17 7 6 5 10 11 10 17 17 59 60 55 51 43 49 56 49 50 51 61 66 61 57 60 59 60 61 62 61 63 62 62 64 62 62
13 16 17 12 16 14 10 13 14 7 8 4 5 2 14 11 9 14 35 49 55 46 45 33 57 56 54 54 56 60 67 70 65 68 68 67 66 62 55 49 55 59 60 62
5 3 5 12 8 13 15 16 18 11 7 4 11 11 10 10 17 11 14 28 38 36 44 43 45 48 50 52 56 59 62 66 72 74 72 69 64 59 55 51 54 53 50 52
5 5 4 9 19 12 14 13 6 4 3 11 7 7 14 11 17 15 17 17 26 35 36 36 37 40 41 44 48 51 53 59 66 74 79 75 64 50 54 55 52 55 51 45
12 5 11 4 13 17 19 16 12 15 10 9 5 14 12 18 22 23 18 24 32 33 30 27 27 27 28 28 28 28 30 34 41 50 63 71 67 49 49 51 43 49 50 45
10 5 4 6 3 19 10 9 10 13 6 7 9 14 16 18 16 19 14 20 32 30 25 24 26 24 22 22 20 17 17 20 24 30 43 57 60 54 40 44 40 43 44 43
8 9 5 1 4 5 9 14 5 5 8 6 10 12 14 7 22 10 15 34 35 30 29 29 30 30 29 26 22 19 17 20 24 27 33 37 45 47 38 37 37 37 39 38
9 9 3 6 13 14 7 7 4 9 10 10 2 13 14 21 16 20 29 35 38 38 34 31 32 32 29 28 27 26 25 24 25 28 33 38 40 39 38 34 36 39 38 37
11 12 9 17 6 11 6 9 12 11 8 5 8 19 5 10 6 11 4 13 28 33 32 32 30 28 28 29 29 27 25 24 26 29 31 32 34 34 33 34 32 33 33 33
17 6 6 6 6 5 7 7 6 8 7 16 12 20 8 7 11 12 5 7 16 23 28 33 34 34 34 35 33 31 29 28 25 25 27 29 30 28 28 29 28 27 25 24
40 8 17 21 11 15 14 16 23 13 9 12 18 27 4 5 6 2 7 13 17 21 28 33 38 40 40 39 34 32 31 29 28 28 27 27 29 31 31 31 28 24 22 20
15 12 9 8 12 12 11 17 26 32 30 16 33 32 34 14 13 26 24 22 27 32 36 40 43 44 43 42 39 38 36 33 31 30 29 31 31 31 29 28 28 26 24 20
2 2 8 6 12 13 7 15 23 33 17 27 9 37 15 5 6 16 29 33 41 46 50 51 47 47 49 50 46 43 39 37 35 35 35 34 32 32 31 30 29 26 22 17
9 10 7 6 2 11 16 19 20 11 14 19 28 53 5 5 20 38 41 45 54 59 59 59 59 58 56 54 49 45 44 41 39 38 38 37 36 34 31 28 26 23 20 16
11 10 5 6 6 5 12 8 25 34 16 16 26 32 23 15 34 38 41 48 56 61 66 67 65 61 60 59 54 52 49 47 46 44 42 40 36 34 32 28 24 20 15 9
8 10 6 10 7 9 10 11 11 15 16 8 24 12 12 23 28 32 10 20 38 52 59 65 67 65 63 63 59 56 53 51 50 48 44 40 36 33 30 24 19 13 6 3
8 10 8 6 11 17 12 7 6 12 10 8 8 6 8 11 2 3 38 38 41 35 46 59 60 62 65 66 63 58 55 52 50 46 43 40 37 31 26 19 13 8 6 11
10 4 9 7 6 13 14 11 9 12 11 24 19 14 13 6 9 27 28 29 29 25 35 46 48 52 60 63 61 58 57 56 51 46 42 37 33 27 21 16 12 14 17 19
15 14 8 5 5 19 15 8 19 14 28 29 19 11 6 5 11 18 19 20 20 19 26 37 45 49 56 58 57 58 58 55 51 47 41 36 26 15 6 10 14 13 12 12
5 12 13 18 12 5 27 11 18 21 21 17 15 11 12 13 17 25 28 23 18 22 30 34 41 47 51 52 54 60 57 50 47 44 35 24 12 4 5 2 12 14 16 14
6 6 6 7 7 11 23 8 6 2 7 11 16 18 19 23 25 29 31 29 26 26 33 35 38 43 50 55 56 50 51 53 45 32 21 12 5 5 11 11 21 17 14 14
9 17 12 6 3 14 5 7 10 6 1 10 17 25 29 30 34 35 37 38 33 30 33 37 41 48 55 58 60 58 56 44 33 26 13 17 19 17 26 24 16 14 15 16
12 11 10 7 11 14 18 11 3 4 10 9 12 17 21 28 34 39 44 43 36 35 36 41 47 55 59 60 57 52 41 37 33 26 32 30 32 34 23 16 13 14 15 18
Wind_Direction_500mb
193 126 177 183 185 182 152 167 142 87 262 144 209 257 256 261 243 245 244 242 237 236 235 243 237 219 222 228 232 238 236 236 232 225 223 226 225 225 227 231 232 230 233 235
76 198 203 178 197 163 133 154 131 90 287 155 200 260 257 248 240 240 246 240 240 241 241 236 234 222 218 223 229 236 241 242 242 241 240 236 232 232 231 232 233 232 235 237
147 213 196 170 169 155 176 162 170 150 136 5 19 294 253 252 242 241 239 240 239 242 244 233 227 227 223 222 223 231 238 247 251 253 248 244 236 236 233 233 235 234 239 239
176 230 184 150 163 131 144 137 127 122 103 209 129 271 294 243 247 216 240 238 238 240 241 238 219 220 216 220 220 222 227 237 246 251 252 250 249 245 242 239 242 241 240 243
207 156 153 155 170 143 189 138 132 119 96 84 260 49 267 278 247 244 232 233 239 235 230 219 207 210 217 222 226 226 227 227 233 240 247 252 253 257 258 248 246 247 244 245
129 108 99 157 80 121 147 84 45 46 75 299 231 178 267 217 215 239 223 238 239 228 226 218 208 215 222 230 236 240 241 235 230 234 237 244 247 249 248 246 244 249 249 249
80 54 350 118 83 6 103 89 44 27 348 225 7 239 243 255 242 199 193 202 188 195 205 215 227 236 243 246 248 248 246 242 236 231 234 237 244 244 243 247 247 249 252 250
146 187 170 191 153 174 166 163 158 181 196 228 10 238 254 245 243 243 224 211 198 200 213 227 235 239 240 246 250 250 245 241 234 228 228 232 238 238 238 247 245 247 249 251
131 173 54 82 109 147 219 197 166 106 34 71 231 293 287 258 248 221 197 187 191 204 213 221 227 232 236 237 237 235 233 229 226 222 224 225 231 235 231 241 241 240 243 245
158 117 9 141 141 66 163 154 102 10 122 252 279 271 237 277 251 251 217 208 202 210 216 219 223 222 222 225 234 235 227 221 220 218 218 221 222 225 224 227 233 236 239 241
143 103 268 136 212 157 126 178 124 122 153 169 216 260 224 212 213 234 245 237 220 225 229 221 216 220 225 228 230 234 231 222 221 222 218 215 205 207 214 220 225 229 232 237
173 119 164 197 255 206 138 184 153 163 234 214 165 254 244 137 129 181 226 222 221 225 224 226 231 233 235 235 236 237 239 233 225 217 211 208 213 212 208 209 216 222 229 234
174 181 77 57 334 354 189 171 188 122 79 212 146 256 360 97 71 56 122 186 209 215 227 237 241 242 240 235 233 233 232 229 222 210 201 192 187 186 188 194 200 203 210 214
162 146 180 192 191 149 178 192 202 172 190 196 232 261 256 75 56 125 184 218 225 242 250 247 237 234 233 234 232 230 225 219 214 203 197 192 187 187 190 189 185 185 188 190
146 163 125 135 118 125 169 187 196 207 211 188 251 248 256 217 254 264 254 225 228 241 249 252 242 236 231 228 224 220 217 211 204 196 189 185 181 176 172 169 167 166 168 171
28 96 99 343 143 149 201 204 204 218 205 243 276 270 104 171 226 291 284 247 239 249 254 252 244 238 232 228 223 219 212 205 198 193 185 179 173 171 170 169 167 164 167 166
104 122 91 214 124 73 288 184 198 192 194 212 226 247 57 250 239 263 270 265 261 265 265 259 252 246 236 229 223 216 210 204 196 192 185 180 178 176 173 171 167 163 164 163
124 99 92 165 56 168 262 243 189 206 196 211 253 263 275 303 303 293 282 287 281 277 270 263 256 247 239 231 222 216 209 202 197 192 187 182 178 178 174 172 166 159 154 152
72 111 104 148 190 298 272 202 166 167 230 264 254 308 336 314 298 297 359 309 296 287 282 274 262 252 239 229 220 212 205 200 196 193 188 182 179 179 172 167 156 147 131 62
52 73 119 127 153 206 237 234 202 95 257 212 131 96 355 4 339 281 327 314 285 295 282 266 255 247 237 227 217 211 204 198 194 189 186 181 177 174 168 158 139 109 52 19
137 112 157 171 212 284 248 222 133 128 232 160 149 126 96 127 240 310 336 329 320 297 272 254 244 235 226 218 212 206 201 195 192 187 180 174 169 163 149 122 76 30 358 327
161 150 172 137 208 257 191 121 168 160 139 152 165 182 205 297 328 326 338 329 313 279 239 232 231 219 211 210 210 203 197 191 187 180 172 162 156 149 127 18 4 335 285 281
216 176 174 187 205 246 169 96 130 149 152 196 222 233 261 283 308 316 317 317 293 256 239 228 223 210 204 205 205 199 192 185 177 167 162 159 141 71 33 3 254 259 271 283
277 176 148 98 208 173 168 147 116 164 258 250 238 254 264 279 294 300 299 292 279 255 243 232 218 212 204 199 194 194 186 176 170 170 172 189 287 203 211 261 255 254 276 294
194 141 155 276 305 99 86 131 105 95 284 271 265 265 275 278 281 283 283 278 264 251 238 228 219 211 202 195 187 182 176 173 177 181 195 175 190 217 231 230 243 264 285 298
192 168 171 205 153 121 158 134 107 318 317 314 312 308 301 286 282 276 271 269 264 255 240 225 214 206 197 187 180 178 182 195 214 196 187 203 216 215 217 233 251 267 287 305
Wind_Speed_850mb
14 8 13 18 17 8 13 12 12 0 5 8 13 13 18 29 22 30 34 29 34 33 36 40 37 54 50 53 54 51 48 47 47 55 59 61 63 65 63 58 55 51 47 44
7 9 15 16 12 7 6 11 7 4 1 4 6 18 19 22 28 43 45 40 41 36 36 40 40 43 58 59 56 54 52 49 50 51 52 59 59 62 61 67 64 58 54 49
13 13 20 17 14 15 7 12 10 10 3 5 5 15 14 18 45 52 56 50 47 45 44 46 45 46 48 57 61 58 55 56 54 52 49 52 53 58 58 65 69 66 58 55
12 14 23 13 10 11 9 7 13 17 7 6 5 10 11 10 17 17 59 60 55 51 43 49 56 49 50 51 61 66 61 57 60 59 60 61 62 61 63 62 62 64 62 62
13 16 17 12 16 14 10 13 14 7 8 4 5 2 14 11 9 14 35 49 55 46 45 33 57 56 54 54 56 60 67 70 65 68 68 67 66 62 55 49 55 59 60 62
5 3 5 12 8 13 15 16 18 11 7 4 11 11 10 10 17 11 14 28 38 36 44 43 45 48 50 52 56 59 62 66 72 74 72 69 64 59 55 51 54 53 50 52
5 5 4 9 19 12 14 13 6 4 3 11 7 7 14 11 17 15 17 17 26 35 36 36 37 40 41 44 48 51 53 59 66 74 79 75 64 50 54 55 52 55 51 45
12 5 11 4 13 17 19 16 12 15 10 9 5 14 12 18 22 23 18 24 32 33 30 27 27 27 28 28 28 28 30 34 41 50 63 71 67 49 49 51 43 49 50 45
10 5 4 6 3 19 10 9 10 13 6 7 9 14 16 18 16 19 14 20 32 30 25 24 26 24 22 22 20 17 17 20 24 30 43 57 60 54 40 44 40 43 44 43
8 9 5 1 4 5 9 14 5 5 8 6 10 12 14 7 22 10 15 34 35 30 29 29 30 30 29 26 22 19 17 20 24 27 33 37 45 47 38 37 37 37 39 38
9 9 3 6 13 14 7 7 4 9 10 10 2 13 14 21 16 20 29 35 38 38 34 31 32 32 29 28 27 26 25 24 25 28 33 38 40 39 38 34 36 39 38 37
11 12 9 17 6 11 6 9 12 11 8 5 8 19 5 10 6 11 4 13 28 33 32 32 30 28 28 29 29 27 25 24 26 29 31 32 34 34 33 34 32 33 33 33
17 6 6 6 6 5 7 7 6 8 7 16 12 20 8 7 11 12 5 7 16 23 28 33 34 34 34 35 33 31 29 28 25 25 27 29 30 28 28 29 28 27 25 24
40 8 17 21 11 15 14 16 23 13 9 12 18 27 4 5 6 2 7 13 17 21 28 33 38 40 40 39 34 32 31 29 28 28 27 27 29 31 31 31 28 24 22 20
15 12 9 8 12 12 11 17 26 32 30 16 33 32 34 14 13 26 24 22 27 32 36 40 43 44 43 42 39 38 36 33 31 30 29 31 31 31 29 28 28 26 24 20
2 2 8 6 12 13 7 15 23 33 17 27 9 37 15 5 6 16 29 33 41 46 50 51 47 47 49 50 46 43 39 37 35 35 35 34 32 32 31 30 29 26 22 17
9 10 7 6 2 11 16 19 20 11 14 19 28 53 5 5 20 38 41 45 54 59 59 59 59 58 56 54 49 45 44 41 39 38 38 37 36 34 31 28 26 23 20 16
11 10 5 6 6 5 12 8 25 34 16 16 26 32 23 15 34 38 41 48 56 61 66 67 65 61 60 59 54 52 49 47 46 44 42 40 36 34 32 28 24 20 15 9
8 10 6 10 7 9 10 11 11 15 16 8 24 12 12 23 28 32 10 20 38 52 59 65 67 65 63 63 59 56 53 51 50 48 44 40 36 33 30 24 19 13 6 3
8 10 8 6 11 17 12 7 6 12 10 8 8 6 8 11 2 3 38 38 41 35 46 59 60 62 65 66 63 58 55 52 50 46 43 40 37 31 26 19 13 8 6 11
10 4 9 7 6 13 14 11 9 12 11 24 19 14 13 6 9 27 28 29 29 25 35 46 48 52 60 63 61 58 57 56 51 46 42 37 33 27 21 16 12 14 17 19
15 14 8 5 5 19 15 8 19 14 28 29 19 11 6 5 11 18 19 20 20 19 26 37 45 49 56 58 57 58 58 55 51 47 41 36 26 15 6 10 14 13 12 12
5 12 13 18 12 5 27 11 18 21 21 17 15 11 12 13 17 25 28 23 18 22 30 34 41 47 51 52 54 60 57 50 47 44 35 24 12 4 5 2 12 14 16 14
6 6 6 7 7 11 23 8 6 2 7 11 16 18 19 23 25 29 31 29 26 26 33 35 38 43 50 55 56 50 51 53 45 32 21 12 5 5 11 11 21 17 14 14
9 17 12 6 3 14 5 7 10 6 1 10 17 25 29 30 34 35 37 38 33 30 33 37 41 48 55 58 60 58 56 44 33 26 13 17 19 17 26 24 16 14 15 16
12 11 10 7 11 14 18 11 3 4 10 9 12 17 21 28 34 39 44 43 36 35 36 41 47 55 59 60 57 52 41 37 33 26 32 30 32 34 23 16 13 14 15 18
Wind_Direction_850mb
193 126 177 183 185 182 152 167 142 87 262 144 209 257 256 261 243 245 244 242 237 236 235 243 237 219 222 228 232 238 236 236 232 225 223 226 225 225 227 231 232 230 233 235
76 198 203 178 197 163 133 154 131 90 287 155 200 260 257 248 240 240 246 240 240 241 241 236 234 222 218 223 229 236 241 242 242 241 240 236 232 232 231 232 233 232 235 237
147 213 196 170 169 155 176 162 170 150 136 5 19 294 253 252 242 241 239 240 239 242 244 233 227 227 223 222 223 231 238 247 251 253 248 244 236 236 233 233 235 234 239 239
176 230 184 150 163 131 144 137 127 122 103 209 129 271 294 243 247 216 240 238 238 240 241 238 219 220 216 220 220 222 227 237 246 251 252 250 249 245 242 239 242 241 240 243
207 156 153 155 170 143 189 138 132 119 96 84 260 49 267 278 247 244 232 233 239 235 230 219 207 210 217 222 226 226 227 227 233 240 247 252 253 257 258 248 246 247 244 245
129 108 99 157 80 121 147 84 45 46 75 299 231 178 267 217 215 239 223 238 239 228 226 218 208 215 222 230 236 240 241 235 230 234 237 244 247 249 248 246 244 249 249 249
80 54 350 118 83 6 103 89 44 27 348 225 7 239 243 255 242 199 193 202 188 195 205 215 227 236 243 246 248 248 246 242 236 231 234 237 244 244 243 247 247 249 252 250
146 187 170 191 153 174 166 163 158 181 196 228 10 238 254 245 243 243 224 211 198 200 213 227 235 239 240 246 250 250 245 241 234 228 228 232 238 238 238 247 245 247 249 251
131 173 54 82 109 147 219 197 166 106 34 71 231 293 287 258 248 221 197 187 191 204 213 221 227 232 236 237 237 235 233 229 226 222 224 225 231 235 231 241 241 240 243 245
158 117 9 141 141 66 163 154 102 10 122 252 279 271 237 277 251 251 217 208 202 210 216 219 223 222 222 225 234 235 227 221 220 218 218 221 222 225 224 227 233 236 239 241
143 103 268 136 212 157 126 178 124 122 153 169 216 260 224 212 213 234 245 237 220 225 229 221 216 220 225 228 230 234 231 222 221 222 218 215 205 207 214 220 225 229 232 237
173 119 164 197 255 206 138 184 153 163 234 214 165 254 244 137 129 181 226 222 221 225 224 226 231 233 235 235 236 237 239 233 225 217 211 208 213 212 208 209 216 222 229 234
174 181 77 57 334 354 189 171 188 122 79 212 146 256 360 97 71 56 122 186 209 215 227 237 241 242 240 235 233 233 232 229 222 210 201 192 187 186 188 194 200 203 210 214
162 146 180 192 191 149 178 192 202 172 190 196 232 261 256 75 56 125 184 218 225 242 250 247 237 234 233 234 232 230 225 219 214 203 197 192 187 187 190 189 185 185 188 190
146 163 125 135 118 125 169 187 196 207 211 188 251 248 256 217 254 264 254 225 228 241 249 252 242 236 231 228 224 220 217 211 204 196 189 185 181 176 172 169 167 166 168 171
28 96 99 343 143 149 201 204 204 218 205 243 276 270 104 171 226 291 284 247 239 249 254 252 244 238 232 228 223 219 212 205 198 193 185 179 173 171 170 169 167 164 167 166
104 122 91 214 124 73 288 184 198 192 194 212 226 247 57 250 239 263 270 265 261 265 265 259 252 246 236 229 223 216 210 204 196 192 185 180 178 176 173 171 167 163 164 163
124 99 92 165 56 168 262 243 189 206 196 211 253 263 275 303 303 293 282 287 281 277 270 263 256 247 239 231 222 216 209 202 197 192 187 182 178 178 174 172 166 159 154 152
72 111 104 148 190 298 272 202 166 167 230 264 254 308 336 314 298 297 359 309 296 287 282 274 262 252 239 229 220 212 205 200 196 193 188 182 179 179 172 167 156 147 131 62
52 73 119 127 153 206 237 234 202 95 257 212 131 96 355 4 339 281 327 314 285 295 282 266 255 247 237 227 217 211 204 198 194 189 186 181 177 174 168 158 139 109 52 19
137 112 157 171 212 284 248 222 133 128 232 160 149 126 96 127 240 310 336 329 320 297 272 254 244 235 226 218 212 206 201 195 192 187 180 174 169 163 149 122 76 30 358 327
161 150 172 137 208 257 191 121 168 160 139 152 165 182 205 297 328 326 338 329 313 279 239 232 231 219 211 210 210 203 197 191 187 180 172 162 156 149 127 18 4 335 285 281
216 176 174 187 205 246 169 96 130 149 152 196 222 233 261 283 308 316 317 317 293 256 239 228 223 210 204 205 205 199 192 185 177 167 162 159 141 71 33 3 254 259 271 283
277 176 148 98 208 173 168 147 116 164 258 250 238 254 264 279 294 300 299 292 279 255 243 232 218 212 204 199 194 194 186 176 170 170 172 189 287 203 211 261 255 254 276 294
194 141 155 276 305 99 86 131 105 95 284 271 265 265 275 278 281 283 283 278 264 251 238 228 219 211 202 195 187 182 176 173 177 181 195 175 190 217 231 230 243 264 285 298
192 168 171 205 153 121 158 134 107 318 317 314 312 308 301 286 282 276 271 269 264 255 240 225 214 206 197 187 180 178 182 195 214 196 187 203 216 215 217 233 251 267 287 305